Regional Weather Roundup
Issued by NWS

Home | Current Version | Previous Version | Graphics & Text | Print | Product List | Glossary On
Versions: 1 2 3 4 5 6 7 8 9 10 11 12 13 14 15 16 17 18 19 20 21 22 23 24 25 26 27 28 29 30 31 32 33 34 35 36 37 38 39 40 41 42 43 44 45 46 47 48 49 50
000
ASUS45 KBOI 301910
RWRID
WEATHER ROUNDUP FOR IDAHO
NATIONAL WEATHER SERVICE BOISE ID
1200 PM MST FRI JAN 30 2015

NOTE: "FAIR" INDICATES FEW OR NO CLOUDS BELOW 12000 FEET
WITH NO SIGNIFICANT WEATHER AND/OR OBSTRUCTIONS TO VISIBILITY

IDZ012-014-302000-
SOUTHWEST IDAHO


CITY           SKY/WX    TMP DP  RH WIND       PRES   REMARKS
BOISE          MOSUNNY   33  33 100 VRB3      30.28F
CALDWELL       CLOUDY    39  28  65 NW5       30.31S
MOUNTAIN HOME  SUNNY     40  34  78 NW10      30.25F WCI  34
$$

IDZ016-017-302000-
SOUTHCENTRAL IDAHO


CITY           SKY/WX    TMP DP  RH WIND       PRES   REMARKS
BURLEY         CLOUDY    38  27  64 VRB3      30.21F
JEROME         FOG       33  31  92 SW6       30.23F VSB<1/4 WCI  28
TWIN FALLS     CLOUDY    37  32  82 NW8       30.22F WCI  31
$$

IDZ019>023-302000-
SOUTHEAST IDAHO


CITY           SKY/WX    TMP DP  RH WIND       PRES   REMARKS
IDAHO FALLS    CLOUDY    34  26  72 N13       30.19F WCI  25
POCATELLO      SUNNY     35  31  85 N6        30.20F WCI  30
REXBURG        PTSUNNY   31  22  69 NE7       30.19F WCI  24
$$

IDZ006-010-011-018-031-032-302000-
CENTRAL IDAHO MOUNTAINS


CITY           SKY/WX    TMP DP  RH WIND       PRES   REMARKS
MCCALL         MOSUNNY   26  18  71 S5        30.21F WCI  20
HAILEY         PTSUNNY   36  19  51 NW10      30.20F WCI  28
STANLEY          N/A     15  10  80 N3        30.27F
SALMON         CLOUDY    28  23  80 CALM      30.35F
CHALLIS        CLOUDY    27  19  72 CALM      30.31F
$$

IDZ002-004-006-007-026-302000-
NORTHERN IDAHO


CITY           SKY/WX    TMP DP  RH WIND       PRES   REMARKS
LEWISTON       CLOUDY    37  35  92 NE5       30.40S WCI  33
LOWELL           N/A     39  30  70 CALM      30.39F
COEUR D`ALENE  CLOUDY    30  28  93 N5        30.36S WCI  25
MULLAN PASS    SUNNY     34  18  52 CALM      30.24S
$$


USA.gov is the U.S. government's official web portal to all federal, state and local government web resources and services.